Weather reports worldwide

Advertisment
Santiago de Compostela/Labacolla, Spain (8042): temperature & dewpoint: 19.03.2019 18:00:00 - 25.03.2019 18:00:00 (CET)Santiago de Compostela/Labacolla, Spain (8042): wind speed: 19.03.2019 18:00:00 - 25.03.2019 18:00:00 (CET)Santiago de Compostela/Labacolla, Spain (8042): wind direction: 19.03.2019 18:00:00 - 25.03.2019 18:00:00 (CET)Santiago de Compostela/Labacolla, Spain (8042): reduced air pressure: 19.03.2019 18:00:00 - 25.03.2019 18:00:00 (CET)Santiago de Compostela/Labacolla, Spain (8042): visibility: 19.03.2019 18:00:00 - 25.03.2019 18:00:00 (CET)
Date & Time tt [°C] td [°C] ff [km/h] ff [kn] dd ppp [hPa] vv [km]
25.03.2019 18:00:00 - - - - - - -
25.03.2019 17:00:00 17,6 7,6 11 6 NE 1020,8 23
25.03.2019 16:00:00 18,8 7,6 8 4 NE 1021,0 25
25.03.2019 15:00:00 18,7 6,9 8 4 NE 1021,5 30
25.03.2019 14:00:00 17,7 7,4 9 5 ENE 1022,6 25
25.03.2019 13:00:00 17,3 7,6 8 4 ESE 1023,3 22
25.03.2019 12:00:00 15,7 7,5 8 4 ESE 1024,2 19
25.03.2019 11:00:00 13,5 7,0 9 5 E 1024,7 25
25.03.2019 10:00:00 11,8 7,0 8 4 ESE 1025,0 30
25.03.2019 09:00:00 8,7 6,1 4 2 E 1025,3 12
25.03.2019 08:00:00 6,4 5,2 4 2 E 1025,3 8
25.03.2019 07:00:00 6,6 5,1 2 1 E 1024,9 15
25.03.2019 06:00:00 6,4 4,4 4 2 ESE 1025,0 10
25.03.2019 05:00:00 6,9 4,3 0 0 N 1025,0 15
25.03.2019 04:00:00 7,2 3,1 0 0 N 1025,1 30
25.03.2019 03:00:00 7,9 3,0 0 0 N 1025,1 30
25.03.2019 02:00:00 8,2 3,0 0 0 N 1025,3 30
25.03.2019 01:00:00 8,8 2,1 0 0 N 1025,4 30
25.03.2019 00:00:00 9,5 2,0 0 0 N 1025,6 30
24.03.2019 23:00:00 10,7 2,2 2 1 E 1025,5 30
24.03.2019 22:00:00 11,9 2,5 8 4 ENE 1025,4 30
24.03.2019 21:00:00 12,0 2,4 4 2 NE 1024,9 30
24.03.2019 20:00:00 13,9 2,9 5 3 NNE 1024,0 30
24.03.2019 19:00:00 18,0 4,8 8 4 NE 1022,6 30
24.03.2019 18:00:00 21,1 4,9 9 5 NE 1021,2 30
24.03.2019 17:00:00 22,3 5,8 9 5 NNE 1021,1 30
24.03.2019 16:00:00 22,3 5,6 8 4 ENE 1021,5 30
24.03.2019 15:00:00 21,9 6,7 9 5 NNE 1022,1 30
24.03.2019 14:00:00 21,5 7,7 8 4 NNE 1022,9 30
24.03.2019 13:00:00 19,7 8,3 8 4 N 1023,8 30
24.03.2019 12:00:00 17,8 7,1 4 2 ESE 1024,5 30
24.03.2019 11:00:00 15,8 6,0 4 2 NNE 1025,1 30
24.03.2019 10:00:00 13,8 4,5 4 2 NE 1025,1 40
24.03.2019 09:00:00 10,9 3,7 0 0 N 1025,1 30
24.03.2019 08:00:00 8,4 2,4 0 0 N 1025,2 40
24.03.2019 07:00:00 8,3 2,1 2 1 ESE 1024,9 30
24.03.2019 06:00:00 8,5 1,6 4 2 ESE 1024,8 30
24.03.2019 05:00:00 9,2 0,9 0 0 N 1024,7 30
24.03.2019 04:00:00 9,9 0,5 2 1 NE 1024,5 30
24.03.2019 03:00:00 10,2 0,6 2 1 N 1024,5 30
24.03.2019 02:00:00 11,3 0,2 2 1 N 1024,5 30
24.03.2019 01:00:00 10,6 1,3 4 2 NNW 1024,8 30
24.03.2019 00:00:00 12,2 2,1 5 3 N 1024,8 30
23.03.2019 23:00:00 10,4 4,3 11 6 NNW 1025,3 30
23.03.2019 22:00:00 12,3 4,3 11 6 N 1025,1 40
23.03.2019 21:00:00 12,9 3,3 9 5 NNW 1024,5 30
23.03.2019 20:00:00 14,0 3,4 13 7 NNW 1023,6 30
23.03.2019 19:00:00 17,4 4,2 15 8 N 1022,6 40
23.03.2019 18:00:00 20,7 3,6 13 7 N 1021,4 30
23.03.2019 17:00:00 21,3 3,6 8 4 N 1021,3 30
23.03.2019 16:00:00 21,0 2,1 5 3 W 1021,9 40
23.03.2019 15:00:00 20,3 2,4 8 4 NNW 1022,6 30
23.03.2019 14:00:00 20,2 1,7 5 3 SSE 1023,3 40
23.03.2019 13:00:00 19,2 2,9 8 4 S 1024,0 40
23.03.2019 12:00:00 17,4 5,0 8 4 SE 1024,7 30
23.03.2019 11:00:00 15,3 5,7 5 3 SE 1025,1 30
23.03.2019 10:00:00 12,5 4,6 8 4 SE 1025,8 40
23.03.2019 09:00:00 9,3 3,8 4 2 SE 1026,2 30
23.03.2019 08:00:00 6,4 2,9 4 2 E 1026,5 30
23.03.2019 07:00:00 6,5 2,4 4 2 E 1026,5 30
23.03.2019 06:00:00 7,0 2,9 4 2 ESE 1026,6 30
23.03.2019 05:00:00 7,2 3,1 2 1 ESE 1026,7 30
23.03.2019 04:00:00 7,4 3,7 0 0 N 1027,0 25
23.03.2019 03:00:00 7,2 3,3 0 0 N 1027,7 30
23.03.2019 02:00:00 7,7 3,4 0 0 N 1027,8 30
23.03.2019 01:00:00 7,9 3,5 0 0 N 1027,7 25
23.03.2019 00:00:00 8,6 4,0 0 0 N 1027,9 30
22.03.2019 23:00:00 8,9 3,9 0 0 N 1028,2 30
22.03.2019 22:00:00 9,7 4,9 4 2 NNE 1027,7 25
22.03.2019 21:00:00 10,5 6,0 8 4 N 1027,1 30
22.03.2019 20:00:00 12,6 6,4 8 4 N 1026,2 30
22.03.2019 19:00:00 15,1 7,9 8 4 N 1025,4 50
22.03.2019 18:00:00 18,1 3,2 8 4 WNW 1024,4 30
22.03.2019 17:00:00 18,6 3,0 11 6 W 1024,4 30
22.03.2019 16:00:00 18,2 1,8 9 5 W 1024,9 50
22.03.2019 15:00:00 18,3 2,9 9 5 W 1025,2 30
22.03.2019 14:00:00 18,0 3,9 9 5 SW 1025,8 30
22.03.2019 13:00:00 16,4 2,9 11 6 S 1026,5 50
22.03.2019 12:00:00 15,3 3,6 5 3 SW 1026,9 30
22.03.2019 11:00:00 12,8 4,7 8 4 S 1027,4 30
22.03.2019 10:00:00 10,6 5,0 9 5 S 1027,5 40
22.03.2019 09:00:00 8,2 4,4 8 4 SSE 1027,5 30
22.03.2019 08:00:00 6,3 3,8 4 2 SSE 1027,3 30
22.03.2019 07:00:00 5,9 3,9 4 2 SSE 1026,7 30
22.03.2019 06:00:00 5,5 3,8 5 3 S 1026,4 27
22.03.2019 05:00:00 5,6 4,2 8 4 S 1026,4 23
22.03.2019 04:00:00 6,2 4,6 4 2 SSE 1026,3 25
22.03.2019 03:00:00 7,1 5,1 0 0 N 1026,4 30
22.03.2019 02:00:00 6,4 4,3 4 2 SSW 1026,6 24
22.03.2019 01:00:00 8,3 5,4 5 3 SSE 1026,4 30
22.03.2019 00:00:00 8,8 5,9 0 0 N 1026,1 30
21.03.2019 23:00:00 10,0 6,7 4 2 W 1026,1 27
21.03.2019 22:00:00 9,8 6,1 5 3 W 1026,1 30
21.03.2019 21:00:00 10,7 6,4 9 5 NW 1025,4 30
21.03.2019 20:00:00 13,2 6,5 16 9 NNW 1024,3 30
21.03.2019 19:00:00 16,1 6,5 11 6 W 1023,6 40
21.03.2019 18:00:00 18,1 3,1 4 2 WSW 1023,4 30
21.03.2019 17:00:00 17,8 4,3 5 3 E 1023,6 30
21.03.2019 16:00:00 18,3 5,8 8 4 N 1024,1 40
21.03.2019 15:00:00 17,4 5,1 5 3 SSE 1025,2 30
21.03.2019 14:00:00 16,6 5,0 8 4 SSE 1026,2 30
21.03.2019 13:00:00 15,4 6,1 4 2 NNE 1027,0 40
21.03.2019 12:00:00 13,8 4,3 5 3 SE 1027,8 30
21.03.2019 11:00:00 11,9 3,1 8 4 SSE 1028,1 30
21.03.2019 10:00:00 10,0 4,3 4 2 ESE 1028,2 30
21.03.2019 09:00:00 6,6 2,7 5 3 ESE 1029,0 30
21.03.2019 08:00:00 4,8 2,0 4 2 E 1028,9 30
21.03.2019 07:00:00 5,0 1,5 4 2 ESE 1028,9 30
21.03.2019 06:00:00 5,2 2,7 0 0 N 1028,7 30
21.03.2019 05:00:00 5,4 3,2 0 0 N 1028,5 30
21.03.2019 04:00:00 5,1 3,3 2 1 ENE 1028,8 30
21.03.2019 03:00:00 5,4 3,9 0 0 N 1029,2 30
21.03.2019 02:00:00 5,4 4,0 2 1 E 1029,2 30
21.03.2019 01:00:00 5,4 4,0 0 0 N 1029,4 30
21.03.2019 00:00:00 6,0 4,0 0 0 N 1029,3 30
20.03.2019 23:00:00 6,7 4,2 5 3 N 1029,2 30
20.03.2019 22:00:00 7,4 4,2 4 2 N 1029,2 30
20.03.2019 21:00:00 9,2 4,8 4 2 NE 1028,7 30
20.03.2019 20:00:00 11,1 5,0 8 4 ENE 1028,1 30
20.03.2019 19:00:00 14,0 5,6 8 4 NE 1027,3 40
20.03.2019 18:00:00 16,2 6,1 8 4 NE 1026,6 30
20.03.2019 17:00:00 17,4 5,4 5 3 ENE 1026,5 30
20.03.2019 16:00:00 17,6 6,4 8 4 NE 1026,9 50
20.03.2019 15:00:00 17,2 6,2 9 5 NNE 1027,5 30
20.03.2019 14:00:00 16,5 5,6 8 4 NE 1028,3 50
20.03.2019 13:00:00 15,3 6,8 8 4 E 1029,0 50
20.03.2019 12:00:00 13,3 6,7 8 4 E 1030,1 30
20.03.2019 11:00:00 11,5 5,6 5 3 E 1031,0 30
20.03.2019 10:00:00 9,1 4,9 8 4 ENE 1031,3 30
20.03.2019 09:00:00 7,0 4,2 4 2 E 1031,5 30
20.03.2019 08:00:00 5,6 3,8 2 1 SE 1031,2 30
20.03.2019 07:00:00 5,1 3,8 2 1 N 1031,1 30
20.03.2019 06:00:00 5,6 4,0 0 0 N 1030,7 30
20.03.2019 05:00:00 5,6 4,1 0 0 N 1030,5 30
20.03.2019 04:00:00 5,5 3,9 4 2 E 1030,7 30
20.03.2019 03:00:00 5,9 4,1 4 2 NNE 1031,1 30
20.03.2019 02:00:00 5,7 4,0 4 2 N 1031,7 30
20.03.2019 01:00:00 6,4 4,1 5 3 NNE 1031,5 30
20.03.2019 00:00:00 6,7 4,2 4 2 NNE 1031,8 30
19.03.2019 23:00:00 7,2 4,7 5 3 NNE 1031,6 30
19.03.2019 22:00:00 7,8 4,4 9 5 NNE 1031,2 30
19.03.2019 21:00:00 8,4 4,4 11 6 NNE 1030,8 30
19.03.2019 20:00:00 9,5 4,6 5 3 NNE 1030,1 30
19.03.2019 19:00:00 11,2 5,5 9 5 NNE 1029,4 40
19.03.2019 18:00:00 12,5 6,4 9 5 NNE 1028,8 30

tt = temperature
td = dewpoint
ff = wind speed
dd = wind direction
ppp = reduced air pressure
vv = visibility

Next stations